Time,TemperatureF,DewpointF,PressureIn,WindDirection,WindDirectionDegrees,WindSpeedMPH,WindSpeedGustMPH,Humidity,HourlyPrecipIn,Conditions,Clouds,dailyrainin,SoftwareType,DateUTC
2013-09-07 00:08:00,59.3,58.0,29.93,SSE,158,1.0,4.0,95,0.11,,,0.30,weatherlink.com 1.10,2013-09-07 04:08:00,
2013-09-07 00:23:00,59.4,58.0,29.93,SSE,159,0.0,2.0,95,0.04,,,0.31,weatherlink.com 1.10,2013-09-07 04:23:00,
2013-09-07 00:53:00,59.3,58.0,29.93,SSE,151,1.0,3.0,96,0.10,,,0.40,weatherlink.com 1.10,2013-09-07 04:53:00,
2013-09-07 01:08:00,59.6,59.0,29.92,SE,144,2.0,6.0,96,0.17,,,0.47,weatherlink.com 1.10,2013-09-07 05:08:00,
2013-09-07 01:38:00,59.9,59.0,29.93,SW,229,4.0,8.0,96,0.72,,,1.09,weatherlink.com 1.10,2013-09-07 05:38:00,
2013-09-07 01:53:00,60.0,59.0,29.91,SSE,166,3.0,6.0,96,0.70,,,1.10,weatherlink.com 1.10,2013-09-07 05:53:00,
2013-09-07 02:08:00,60.2,59.0,29.91,South,180,2.0,3.0,95,0.64,,,1.11,weatherlink.com 1.10,2013-09-07 06:08:00,
2013-09-07 02:23:00,60.2,59.0,29.90,SE,131,3.0,7.0,96,0.23,,,1.12,weatherlink.com 1.10,2013-09-07 06:23:00,
2013-09-07 02:38:00,60.2,59.0,29.88,SE,127,4.0,6.0,96,0.03,,,1.12,weatherlink.com 1.10,2013-09-07 06:38:00,
2013-09-07 02:53:00,60.2,59.0,29.88,SSE,161,1.0,4.0,96,0.02,,,1.12,weatherlink.com 1.10,2013-09-07 06:53:00,
2013-09-07 03:08:00,60.2,59.0,29.88,ESE,119,0.0,4.0,95,0.01,,,1.12,weatherlink.com 1.10,2013-09-07 07:08:00,
2013-09-07 03:23:00,60.1,59.0,29.88,SSE,162,0.0,3.0,95,0.00,,,0.00,weatherlink.com 1.10,2013-09-07 07:23:00,
2013-09-07 03:38:00,60.1,59.0,29.87,SE,132,3.0,3.0,95,0.02,,,0.02,weatherlink.com 1.10,2013-09-07 07:38:00,
2013-09-07 03:54:00,60.0,59.0,29.86,SE,132,1.0,4.0,96,0.03,,,0.03,weatherlink.com 1.10,2013-09-07 07:54:00,
2013-09-07 04:08:00,59.8,59.0,29.87,SSE,164,0.0,3.0,96,0.03,,,0.03,weatherlink.com 1.10,2013-09-07 08:08:00,
2013-09-07 04:23:00,59.8,59.0,29.87,SE,134,0.0,3.0,96,0.03,,,0.03,weatherlink.com 1.10,2013-09-07 08:23:00,
2013-09-07 04:38:00,59.7,59.0,29.87,SSE,148,0.0,2.0,96,0.01,,,0.03,weatherlink.com 1.10,2013-09-07 08:38:00,
2013-09-07 04:53:00,59.7,59.0,29.86,ESE,113,2.0,2.0,96,0.00,,,0.03,weatherlink.com 1.10,2013-09-07 08:53:00,
2013-09-07 05:09:00,59.9,59.0,29.85,SSE,148,4.0,7.0,96,0.00,,,0.03,weatherlink.com 1.10,2013-09-07 09:09:00,
2013-09-07 05:24:00,60.0,59.0,29.85,SSE,167,3.0,7.0,96,0.00,,,0.03,weatherlink.com 1.10,2013-09-07 09:24:00,
2013-09-07 05:39:00,60.1,59.0,29.85,SSE,147,4.0,7.0,96,0.01,,,0.04,weatherlink.com 1.10,2013-09-07 09:39:00,
2013-09-07 05:54:00,60.1,59.0,29.84,SSE,157,0.0,8.0,96,0.02,,,0.05,weatherlink.com 1.10,2013-09-07 09:54:00,
2013-09-07 06:09:00,60.2,59.0,29.84,ESE,120,0.0,5.0,96,0.02,,,0.05,weatherlink.com 1.10,2013-09-07 10:09:00,
2013-09-07 06:24:00,60.2,59.0,29.84,SSE,152,0.0,2.0,96,0.02,,,0.05,weatherlink.com 1.10,2013-09-07 10:24:00,
2013-09-07 06:39:00,60.3,59.0,29.84,SSE,159,1.0,4.0,96,0.01,,,0.05,weatherlink.com 1.10,2013-09-07 10:39:00,
2013-09-07 06:54:00,60.4,59.0,29.85,ESE,120,0.0,3.0,96,0.00,,,0.05,weatherlink.com 1.10,2013-09-07 10:54:00,
2013-09-07 07:09:00,60.4,59.0,29.85,SE,133,0.0,3.0,96,0.00,,,0.05,weatherlink.com 1.10,2013-09-07 11:09:00,
2013-09-07 07:24:00,60.5,59.0,29.85,ESE,121,0.0,1.0,96,0.00,,,0.05,weatherlink.com 1.10,2013-09-07 11:24:00,
2013-09-07 07:39:00,60.6,60.0,29.85,ESE,121,0.0,0.0,97,0.00,,,0.05,weatherlink.com 1.10,2013-09-07 11:39:00,
2013-09-07 07:54:00,60.7,60.0,29.86,ESE,121,2.0,2.0,97,0.00,,,0.05,weatherlink.com 1.10,2013-09-07 11:54:00,
2013-09-07 08:09:00,60.9,60.0,29.85,ESE,121,0.0,1.0,97,0.00,,,0.05,weatherlink.com 1.10,2013-09-07 12:09:00,
2013-09-07 08:24:00,61.0,60.0,29.85,ESE,122,2.0,3.0,97,0.00,,,0.05,weatherlink.com 1.10,2013-09-07 12:24:00,
2013-09-07 08:39:00,61.1,60.0,29.85,ESE,122,0.0,2.0,97,0.00,,,0.05,weatherlink.com 1.10,2013-09-07 12:39:00,
2013-09-07 08:54:00,61.2,60.0,29.84,South,173,2.0,3.0,97,0.00,,,0.05,weatherlink.com 1.10,2013-09-07 12:54:00,
2013-09-07 09:09:00,61.5,61.0,29.83,South,175,1.0,3.0,97,0.00,,,0.05,weatherlink.com 1.10,2013-09-07 13:09:00,
2013-09-07 09:24:00,62.0,61.0,29.83,SE,146,0.0,2.0,97,0.00,,,0.05,weatherlink.com 1.10,2013-09-07 13:24:00,
2013-09-07 09:39:00,62.6,62.0,29.83,South,173,0.0,5.0,97,0.00,,,0.05,weatherlink.com 1.10,2013-09-07 13:39:00,
2013-09-07 09:54:00,63.6,63.0,29.83,SE,144,2.0,4.0,97,0.00,,,0.05,weatherlink.com 1.10,2013-09-07 13:54:00,
2013-09-07 10:09:00,64.1,63.0,29.83,SE,139,1.0,4.0,97,0.00,,,0.05,weatherlink.com 1.10,2013-09-07 14:09:00,
2013-09-07 10:24:00,64.8,64.0,29.83,SSE,150,0.0,2.0,97,0.00,,,0.05,weatherlink.com 1.10,2013-09-07 14:24:00,
2013-09-07 10:39:00,65.1,64.0,29.84,SE,146,1.0,2.0,97,0.00,,,0.05,weatherlink.com 1.10,2013-09-07 14:39:00,
2013-09-07 10:54:00,65.2,64.0,29.83,ENE,78,2.0,3.0,96,0.00,,,0.05,weatherlink.com 1.10,2013-09-07 14:54:00,
2013-09-07 11:09:00,65.5,64.0,29.84,NE,56,2.0,3.0,96,0.00,,,0.05,weatherlink.com 1.10,2013-09-07 15:09:00,
2013-09-07 11:24:00,65.2,64.0,29.84,ESE,104,2.0,3.0,95,0.00,,,0.05,weatherlink.com 1.10,2013-09-07 15:24:00,
2013-09-07 11:39:00,65.3,64.0,29.84,ESE,119,0.0,3.0,95,0.00,,,0.05,weatherlink.com 1.10,2013-09-07 15:39:00,
2013-09-07 11:54:00,65.4,64.0,29.85,ESE,117,0.0,3.0,95,0.00,,,0.05,weatherlink.com 1.10,2013-09-07 15:54:00,
2013-09-07 12:09:00,65.3,64.0,29.86,NNW,344,2.0,3.0,94,0.00,,,0.05,weatherlink.com 1.10,2013-09-07 16:09:00,
2013-09-07 12:24:00,64.9,63.0,29.85,NW,326,3.0,4.0,94,0.00,,,0.05,weatherlink.com 1.10,2013-09-07 16:24:00,
2013-09-07 12:39:00,64.5,63.0,29.86,NNW,332,6.0,6.0,94,0.00,,,0.05,weatherlink.com 1.10,2013-09-07 16:39:00,
2013-09-07 12:54:00,64.1,62.0,29.86,NNW,346,5.0,7.0,94,0.00,,,0.05,weatherlink.com 1.10,2013-09-07 16:54:00,
2013-09-07 13:09:00,63.9,62.0,29.86,NNE,26,0.0,5.0,94,0.00,,,0.05,weatherlink.com 1.10,2013-09-07 17:09:00,
2013-09-07 13:24:00,63.4,62.0,29.85,North,350,0.0,3.0,94,0.00,,,0.05,weatherlink.com 1.10,2013-09-07 17:24:00,
2013-09-07 13:39:00,63.9,62.0,29.84,NNE,17,1.0,2.0,94,0.00,,,0.05,weatherlink.com 1.10,2013-09-07 17:39:00,
2013-09-07 13:54:00,64.4,63.0,29.84,NNE,20,4.0,4.0,95,0.00,,,0.05,weatherlink.com 1.10,2013-09-07 17:54:00,
2013-09-07 14:09:00,65.4,64.0,29.83,NE,37,4.0,5.0,94,0.00,,,0.05,weatherlink.com 1.10,2013-09-07 18:09:00,
2013-09-07 14:24:00,65.3,63.0,29.84,NNE,24,1.0,4.0,92,0.00,,,0.05,weatherlink.com 1.10,2013-09-07 18:24:00,
2013-09-07 14:39:00,65.9,64.0,29.84,NNE,32,2.0,3.0,93,0.00,,,0.05,weatherlink.com 1.10,2013-09-07 18:39:00,
2013-09-07 14:54:00,65.7,63.0,29.84,NNW,342,2.0,3.0,91,0.00,,,0.05,weatherlink.com 1.10,2013-09-07 18:54:00,
2013-09-07 15:09:00,65.1,63.0,29.84,NW,312,3.0,4.0,92,0.00,,,0.05,weatherlink.com 1.10,2013-09-07 19:09:00,
2013-09-07 15:24:00,65.1,63.0,29.84,WNW,302,2.0,4.0,92,0.00,,,0.05,weatherlink.com 1.10,2013-09-07 19:24:00,
2013-09-07 15:39:00,65.1,63.0,29.85,NW,316,4.0,4.0,92,0.00,,,0.05,weatherlink.com 1.10,2013-09-07 19:39:00,
2013-09-07 15:54:00,65.2,63.0,29.84,NW,320,2.0,3.0,92,0.00,,,0.05,weatherlink.com 1.10,2013-09-07 19:54:00,
2013-09-07 16:09:00,65.2,63.0,29.84,NW,315,2.0,3.0,92,0.00,,,0.05,weatherlink.com 1.10,2013-09-07 20:09:00,
2013-09-07 16:24:00,65.0,63.0,29.84,NNW,328,0.0,3.0,92,0.00,,,0.05,weatherlink.com 1.10,2013-09-07 20:24:00,
2013-09-07 16:39:00,66.0,64.0,29.84,NNW,329,0.0,0.0,93,0.00,,,0.05,weatherlink.com 1.10,2013-09-07 20:39:00,
2013-09-07 16:54:00,66.6,64.0,29.83,ENE,67,0.0,2.0,92,0.00,,,0.05,weatherlink.com 1.10,2013-09-07 20:54:00,
2013-09-07 17:09:00,67.2,65.0,29.83,ENE,67,0.0,0.0,92,0.00,,,0.05,weatherlink.com 1.10,2013-09-07 21:09:00,
2013-09-07 17:24:00,68.2,66.0,29.83,ENE,65,0.0,1.0,91,0.00,,,0.05,weatherlink.com 1.10,2013-09-07 21:24:00,
2013-09-07 17:40:00,68.6,65.0,29.84,NW,310,1.0,2.0,89,0.00,,,0.05,weatherlink.com 1.10,2013-09-07 21:40:00,
2013-09-07 17:55:00,68.9,66.0,29.85,NW,306,2.0,2.0,89,0.00,,,0.05,weatherlink.com 1.10,2013-09-07 21:55:00,
2013-09-07 18:10:00,69.3,66.0,29.85,NW,306,1.0,3.0,88,0.00,,,0.05,weatherlink.com 1.10,2013-09-07 22:10:00,
2013-09-07 18:25:00,69.2,66.0,29.85,NW,313,0.0,0.0,89,0.00,,,0.05,weatherlink.com 1.10,2013-09-07 22:25:00,
2013-09-07 18:40:00,70.1,67.0,29.85,WSW,246,1.0,3.0,88,0.00,,,0.05,weatherlink.com 1.10,2013-09-07 22:40:00,
2013-09-07 18:55:00,70.6,67.0,29.85,WSW,246,0.0,1.0,89,0.00,,,0.05,weatherlink.com 1.10,2013-09-07 22:55:00,
2013-09-07 19:10:00,70.3,67.0,29.86,NW,307,2.0,4.0,89,0.00,,,0.05,weatherlink.com 1.10,2013-09-07 23:10:00,
2013-09-07 19:25:00,68.7,66.0,29.86,West,267,1.0,4.0,91,0.00,,,0.05,weatherlink.com 1.10,2013-09-07 23:25:00,
2013-09-07 19:40:00,68.5,66.0,29.86,SW,227,3.0,4.0,91,0.00,,,0.05,weatherlink.com 1.10,2013-09-07 23:40:00,
2013-09-07 19:55:00,67.8,65.0,29.87,SW,224,1.0,4.0,91,0.00,,,0.05,weatherlink.com 1.10,2013-09-07 23:55:00,
2013-09-07 20:10:00,67.5,66.0,29.87,WSW,238,2.0,5.0,93,0.00,,,0.05,weatherlink.com 1.10,2013-09-08 00:10:00,
2013-09-07 20:25:00,67.5,66.0,29.88,WSW,256,0.0,4.0,93,0.00,,,0.05,weatherlink.com 1.10,2013-09-08 00:25:00,
2013-09-07 20:40:00,67.4,65.0,29.89,WSW,255,2.0,5.0,93,0.00,,,0.05,weatherlink.com 1.10,2013-09-08 00:40:00,
2013-09-07 20:55:00,66.8,65.0,29.91,NNW,331,7.0,11.0,94,0.00,,,0.05,weatherlink.com 1.10,2013-09-08 00:55:00,
2013-09-07 21:10:00,65.9,63.0,29.91,NNW,338,8.0,14.0,90,0.00,,,0.05,weatherlink.com 1.10,2013-09-08 01:10:00,
2013-09-07 21:25:00,65.2,62.0,29.92,North,360,6.0,9.0,90,0.00,,,0.05,weatherlink.com 1.10,2013-09-08 01:25:00,